Location: Caltech
(34.1382°N, 118.1253°W)
Time: 15:54:16
(UTC-08:00)

Cosmos 1758 Rocket - Visible Passes

Search period start: 28 November 2014 00:00
Search period end: 08 December 2014 00:00
Orbit: 602 x 639 km, 82.5° (Epoch: 28 November)

Date Brightness Start Highest point End Pass type
(mag) Time Alt. Az. Time Alt. Az. Time Alt. Az.
30 Nov 6.3 05:40:31 10° NNE 05:43:28 18° ENE 05:46:23 10° ESE visible
01 Dec 5.3 05:57:30 10° NNE 06:01:27 34° E 06:05:24 10° SE visible
02 Dec 5.6 18:42:35 10° S 18:43:41 17° SSE 18:43:41 17° SSE visible
03 Dec 5.1 19:00:19 10° SSW 19:02:33 29° SSW 19:02:33 29° SSW visible
04 Dec 6.2 05:13:52 10° NNE 05:17:03 20° ENE 05:20:14 10° SE visible
04 Dec 5.3 17:42:30 10° ESE 17:44:09 15° E 17:44:09 15° E visible
04 Dec 5.4 19:18:37 10° SW 19:21:25 29° WSW 19:21:25 29° WSW visible
05 Dec 5.0 05:30:58 10° N 05:35:01 39° E 05:39:05 10° SSE visible
05 Dec 4.3 17:58:52 10° SSE 18:02:40 30° E 18:03:01 30° E visible
05 Dec 6.2 19:37:41 10° WSW 19:40:16 17° W 19:40:16 17° W visible
06 Dec 3.6 05:48:34 10° N 05:52:54 83° E 05:57:15 10° S visible
06 Dec 3.4 18:16:06 10° S 18:20:24 63° E 18:21:51 39° NNE visible
07 Dec 6.6 04:31:12 10° NE 04:32:34 11° ENE 04:33:55 10° E visible
07 Dec 3.8 06:06:32 10° NNW 06:10:41 47° W 06:14:51 10° SSW visible
07 Dec 3.9 18:33:55 10° SSW 18:38:13 62° W 18:40:39 25° N visible
